Regional Weather Roundup
Issued by NWS

Home | Current Version | Previous Version | Text Only | Print | Product List | Glossary On
Versions: 1 2 3 4 5 6 7 8 9 10 11 12 13 14 15 16 17 18 19 20 21 22 23 24 25 26 27 28
000
ASUS44 KBMX 232210
RWRAL

ALABAMA REGIONAL WEATHER ROUNDUP
NATIONAL WEATHER SERVICE BIRMINGHAM AL
500 PM CDT THU OCT 23 2014

NOTE: "FAIR" INDICATES FEW OR NO CLOUDS BELOW 12,000 FEET
WITH NO SIGNIFICANT WEATHER AND/OR OBSTRUCTIONS TO VISIBILITY.

THE REMARK "TC" DENOTES TEMPERATURE IN DEGREES CELSIUS.

ALZ001>011-014-016>018-020-232300-
NORTH ALABAMA

CITY           SKY/WX    TMP DP  RH WIND       PRES   REMARKS
MUSCLE SHOALS  CLOUDY    66  43  43 CALM      30.10S
HUNTSVILLE     CLOUDY    69  37  30 N6        30.07F
DECATUR        CLOUDY    65  45  48 W5        30.08S
HALEYVILLE     FAIR      61  48  62 N5        30.12R
GADSDEN        PTSUNNY   64  41  42 N6        30.05S
$$

ALZ012-013-022-023-030>036-040>044-232300-
WEST CENTRAL ALABAMA

CITY           SKY/WX    TMP DP  RH WIND       PRES   REMARKS
TUSCALOOSA     MOSUNNY   68  45  43 NW6       30.08S
$$

ALZ015-024>027-033>036-040>044-232300-
CENTRAL ALABAMA

CITY           SKY/WX    TMP DP  RH WIND       PRES   REMARKS
BIRMINGHAM     CLOUDY    67  41  38 N7        30.09R
MONTGOMERY     SUNNY     73  41  31 VRB3      30.04S
SHELBY CO ARPT PTSUNNY   68  43  40 CALM      30.06R
MAXWELL AFB    MOSUNNY   71  43  36 NW1       30.03S
GREENVILLE     FAIR      70  42  36 N3        30.03S
$$

ALZ019-021-028-029-037-038-045>048-232300-
EAST CENTRAL ALABAMA

CITY           SKY/WX    TMP DP  RH WIND       PRES   REMARKS
ANNISTON       CLOUDY    68  40  35 N6        30.04F
ALEXANDER CITY MOSUNNY   74  50  42 NW6       30.04S
AUBURN         SUNNY     68  43  40 N7        30.06F
$$

ALZ051>064-232300-
SOUTHWEST ALABAMA

CITY           SKY/WX    TMP DP  RH WIND       PRES   REMARKS
MOBILE         MOSUNNY   73  41  31 N8        30.04S
BROOKLEY FIELD SUNNY     74  46  36 N7        30.04S
EVERGREEN      MOSUNNY   76  40  27 N5        30.03F
$$

ALZ049-050-065>069-232300-
SOUTHEAST ALABAMA

CITY           SKY/WX    TMP DP  RH WIND       PRES   REMARKS
DOTHAN         SUNNY     73  44  35 N6        30.06R
OZARK          SUNNY     72  44  35 NW6       30.03R
TROY           SUNNY     70  42  36 N7        30.04R
EUFAULA        FAIR      73  43  33 CALM      30.02R
$$



USA.gov is the U.S. government's official web portal to all federal, state and local government web resources and services.